TimeCDT,TemperatureF,Dew PointF,Humidity,Sea Level PressureIn,VisibilityMPH,Wind Direction,Wind SpeedMPH,Gust SpeedMPH,PrecipitationIn,Events,Conditions,WindDirDegrees,DateUTC
12:15 AM,71.6,64.4,78,29.91,10.0,SSE,9.2,-,N/A,,Clear,150,2013-10-05 05:15:00
12:35 AM,69.8,64.4,83,29.91,10.0,SSE,6.9,-,N/A,,Clear,160,2013-10-05 05:35:00
12:55 AM,69.8,64.4,83,29.91,10.0,South,6.9,-,N/A,,Clear,170,2013-10-05 05:55:00
1:15 AM,69.8,64.4,83,29.90,10.0,SSE,9.2,-,N/A,,Clear,160,2013-10-05 06:15:00
1:35 AM,69.8,64.4,83,29.90,10.0,South,8.1,-,N/A,,Clear,170,2013-10-05 06:35:00
1:55 AM,69.8,64.4,83,29.90,10.0,South,8.1,-,N/A,,Clear,170,2013-10-05 06:55:00
2:15 AM,69.8,64.4,83,29.90,10.0,South,8.1,-,N/A,,Clear,180,2013-10-05 07:15:00
2:35 AM,69.8,64.4,83,29.89,10.0,South,9.2,-,N/A,,Clear,180,2013-10-05 07:35:00
2:55 AM,69.8,64.4,83,29.88,10.0,South,8.1,-,N/A,,Clear,170,2013-10-05 07:55:00
3:15 AM,69.8,64.4,83,29.88,10.0,South,9.2,-,N/A,,Clear,170,2013-10-05 08:15:00
3:35 AM,69.8,64.4,83,29.87,10.0,South,9.2,-,N/A,,Clear,180,2013-10-05 08:35:00
3:55 AM,69.8,64.4,83,29.87,10.0,South,8.1,-,N/A,,Clear,180,2013-10-05 08:55:00
4:15 AM,68.0,64.4,88,29.87,10.0,South,5.8,-,N/A,,Clear,180,2013-10-05 09:15:00
4:35 AM,68.0,64.4,88,29.88,10.0,South,5.8,-,N/A,,Clear,180,2013-10-05 09:35:00
4:55 AM,68.0,64.4,88,29.88,10.0,South,4.6,-,N/A,,Clear,170,2013-10-05 09:55:00
5:15 AM,68.0,64.4,88,29.88,10.0,SSE,4.6,-,N/A,,Clear,160,2013-10-05 10:15:00
5:35 AM,66.2,64.4,94,29.89,9.0,South,5.8,-,N/A,,Clear,190,2013-10-05 10:35:00
5:55 AM,66.2,64.4,94,29.89,9.0,South,5.8,-,N/A,,Scattered Clouds,170,2013-10-05 10:55:00
6:15 AM,68.0,64.4,88,29.89,10.0,South,5.8,-,N/A,,Scattered Clouds,170,2013-10-05 11:15:00
6:35 AM,68.0,64.4,88,29.89,8.0,South,8.1,-,N/A,,Partly Cloudy,170,2013-10-05 11:35:00
6:55 AM,68.0,64.4,88,29.89,10.0,SSW,6.9,-,N/A,,Partly Cloudy,200,2013-10-05 11:55:00
7:15 AM,68.0,64.4,88,29.89,7.0,South,4.6,-,N/A,,Mostly Cloudy,180,2013-10-05 12:15:00
7:35 AM,68.0,64.4,88,29.89,7.0,South,4.6,-,N/A,,Partly Cloudy,180,2013-10-05 12:35:00
7:55 AM,69.8,66.2,88,29.88,7.0,SSE,6.9,-,N/A,,Clear,160,2013-10-05 12:55:00
8:15 AM,69.8,66.2,88,29.89,7.0,SSW,8.1,-,N/A,,Clear,200,2013-10-05 13:15:00
8:35 AM,69.8,66.2,88,29.89,8.0,SSW,6.9,-,N/A,,Clear,200,2013-10-05 13:35:00
8:55 AM,71.6,66.2,83,29.89,10.0,SSW,11.5,-,N/A,,Partly Cloudy,200,2013-10-05 13:55:00
9:15 AM,71.6,66.2,83,29.89,10.0,SSW,9.2,-,N/A,,Partly Cloudy,210,2013-10-05 14:15:00
9:35 AM,71.6,66.2,83,29.89,10.0,SSW,9.2,-,N/A,,Scattered Clouds,210,2013-10-05 14:35:00
9:55 AM,71.6,66.2,83,29.90,10.0,SW,11.5,-,N/A,,Mostly Cloudy,230,2013-10-05 14:55:00
10:15 AM,71.6,66.2,83,29.90,9.0,SW,6.9,-,N/A,Thunderstorm,Overcast,220,2013-10-05 15:15:00
10:35 AM,71.6,66.2,83,29.90,9.0,SW,9.2,-,N/A,,Mostly Cloudy,220,2013-10-05 15:35:00
10:55 AM,71.6,68.0,88,29.88,10.0,WSW,3.5,-,N/A,,Overcast,240,2013-10-05 15:55:00
11:15 AM,71.6,66.2,83,29.88,10.0,SSW,5.8,-,N/A,,Overcast,210,2013-10-05 16:15:00
11:35 AM,73.4,66.2,78,29.89,10.0,South,5.8,-,N/A,,Overcast,190,2013-10-05 16:35:00
11:55 AM,73.4,66.2,78,29.89,10.0,South,9.2,-,N/A,,Mostly Cloudy,190,2013-10-05 16:55:00
12:15 PM,73.4,66.2,78,29.89,10.0,SSW,8.1,-,N/A,,Mostly Cloudy,200,2013-10-05 17:15:00
12:35 PM,73.4,66.2,78,29.88,10.0,South,8.1,-,N/A,,Mostly Cloudy,170,2013-10-05 17:35:00
12:55 PM,73.4,66.2,78,29.88,10.0,SSW,6.9,-,N/A,,Mostly Cloudy,200,2013-10-05 17:55:00
1:15 PM,73.4,68.0,83,29.86,10.0,South,5.8,-,N/A,,Overcast,190,2013-10-05 18:15:00
1:35 PM,71.6,68.0,88,29.85,8.0,SSW,9.2,-,0.03,,Overcast,210,2013-10-05 18:35:00
1:55 PM,71.6,66.2,83,29.84,8.0,West,6.9,-,0.03,,Mostly Cloudy,260,2013-10-05 18:55:00
2:15 PM,71.6,66.2,83,29.83,9.0,West,9.2,-,N/A,,Mostly Cloudy,260,2013-10-05 19:15:00
2:35 PM,73.4,64.4,73,29.82,10.0,SW,12.7,-,N/A,,Mostly Cloudy,220,2013-10-05 19:35:00
2:55 PM,73.4,64.4,73,29.81,10.0,SSW,13.8,-,N/A,,Partly Cloudy,200,2013-10-05 19:55:00
3:15 PM,73.4,62.6,69,29.81,10.0,SSW,17.3,20.7,N/A,,Scattered Clouds,210,2013-10-05 20:15:00
3:35 PM,73.4,62.6,69,29.80,10.0,SSW,16.1,-,N/A,,Partly Cloudy,210,2013-10-05 20:35:00
3:55 PM,73.4,60.8,65,29.80,10.0,SW,19.6,24.2,N/A,,Mostly Cloudy,230,2013-10-05 20:55:00
4:15 PM,71.6,60.8,69,29.81,10.0,SW,15.0,28.8,N/A,,Overcast,230,2013-10-05 21:15:00
4:35 PM,69.8,59.0,68,29.81,10.0,SW,15.0,21.9,N/A,,Overcast,230,2013-10-05 21:35:00
4:55 PM,69.8,59.0,68,29.80,10.0,SW,13.8,-,N/A,,Overcast,230,2013-10-05 21:55:00
5:15 PM,68.0,57.2,68,29.81,10.0,WSW,12.7,21.9,N/A,,Overcast,240,2013-10-05 22:15:00
5:35 PM,66.2,55.4,68,29.81,10.0,SW,15.0,-,N/A,,Overcast,230,2013-10-05 22:35:00
5:55 PM,66.2,55.4,68,29.82,10.0,SW,11.5,-,N/A,,Overcast,220,2013-10-05 22:55:00
6:15 PM,64.4,53.6,68,29.82,10.0,WSW,13.8,20.7,N/A,,Overcast,240,2013-10-05 23:15:00
6:35 PM,64.4,53.6,68,29.82,10.0,West,9.2,-,N/A,,Overcast,260,2013-10-05 23:35:00
6:55 PM,62.6,53.6,72,29.82,10.0,West,9.2,-,N/A,,Overcast,260,2013-10-05 23:55:00
7:15 PM,62.6,51.8,68,29.82,10.0,SW,6.9,-,N/A,,Overcast,230,2013-10-06 00:15:00
7:35 PM,60.8,50.0,68,29.83,10.0,SW,9.2,-,N/A,,Overcast,230,2013-10-06 00:35:00
7:55 PM,60.8,50.0,68,29.83,10.0,SW,8.1,-,N/A,,Overcast,230,2013-10-06 00:55:00
8:15 PM,60.8,48.2,63,29.84,10.0,SW,9.2,-,N/A,,Overcast,230,2013-10-06 01:15:00
8:35 PM,60.8,48.2,63,29.84,10.0,WSW,8.1,-,N/A,,Overcast,250,2013-10-06 01:35:00
8:55 PM,60.8,48.2,63,29.84,10.0,WSW,8.1,-,N/A,,Overcast,250,2013-10-06 01:55:00
9:15 PM,57.2,48.2,72,29.85,10.0,West,8.1,-,N/A,,Scattered Clouds,270,2013-10-06 02:15:00
9:35 PM,57.2,42.8,59,29.86,10.0,WSW,8.1,-,N/A,,Clear,250,2013-10-06 02:35:00
9:55 PM,53.6,42.8,67,29.85,10.0,West,4.6,-,N/A,,Clear,270,2013-10-06 02:55:00
10:15 PM,53.6,42.8,67,29.85,10.0,WSW,4.6,-,N/A,,Clear,240,2013-10-06 03:15:00
10:35 PM,51.8,42.8,71,29.84,10.0,WSW,5.8,-,N/A,,Clear,240,2013-10-06 03:35:00
10:55 PM,51.8,42.8,71,29.85,10.0,SW,3.5,-,N/A,,Clear,220,2013-10-06 03:55:00
11:15 PM,51.8,41.0,67,29.85,10.0,West,11.5,-,N/A,,Clear,260,2013-10-06 04:15:00
11:35 PM,51.8,39.2,62,29.85,10.0,West,9.2,-,N/A,,Partly Cloudy,280,2013-10-06 04:35:00
11:55 PM,50.0,39.2,66,29.85,10.0,West,6.9,-,N/A,,Partly Cloudy,280,2013-10-06 04:55:00